Harlingen, TX

2:52 AM CDT on July 23, 2017 (GMT -0500)
Valley International

Weather History for KHRL - December, 2013

Change the Weather History Date:

Sunday, December 15, 2013

  Actual Average Record
Temperature  
Mean Temperature 53 °F 60 °F  
Max Temperature 64 °F 71 °F 87 °F (1950)
Min Temperature 41 °F 50 °F 30 °F (1932)
Degree Days  
Heating Degree Days 12 6  
Month to date heating degree days 135 82  
Since 1 July heating degree days 267 139  
Cooling Degree Days 0 2  
Month to date cooling degree days 30 35  
Year to date cooling degree days 4043 3969  
Growing Degree Days 2 (Base 50)    
Moisture  
Dew Point 36 °F    
Average Humidity 55    
Maximum Humidity 82    
Minimum Humidity 27    
Precipitation  
Precipitation 0.00 in 0.05 in 0.36 in (2009)
Month to date precipitation 0.13 0.78  
Year to date precipitation 29.30 24.70  
Sea Level Pressure  
Sea Level Pressure 30.35 in    
Wind  
Wind Speed 9 mph (North)    
Max Wind Speed 16 mph    
Max Gust Speed 18 mph    
Visibility 10 miles    
Events      
T = Trace of Precipitation, MM = Missing Value Source: NWS Daily Summary

Daily Weather History Graph

Daily Weather History Graph

Search for Another Location

Airport or City:

Trip Planner

Search our weather history database for the weather conditions in past years. The results will help you decide how hot, cold, wet, or windy it might be!

Date:

Astronomy

Dec. 15, 2013 Rise Set
Actual Time 7:10 AM CST 5:41 PM CST
Civil Twilight 6:45 AM CST 6:06 PM CST
Nautical Twilight 6:16 AM CST 6:35 PM CST
Astronomical Twilight 5:48 AM CST 7:03 PM CST
Moon 4:40 PM CST (12/15) 5:34 AM CST (12/15)
Length of Visible Light 11h 21m
Length of Day
10h 30m
Waxing Gibbous, 98% of the Moon is Illuminated
Dec 15
Waxing Gibbous
Dec 17
Full
Dec 25
Last Quarter
Jan 1
New
Jan 7
First Quarter

Hourly Weather History & Observations

Time (CST) Temp. Windchill Dew Point Humidity Pressure Visibility Wind Dir Wind Speed Gust Speed Precip Events Conditions
12:52 AM 46.0 °F 41.4 °F 39.0 °F 76% 30.32 in 10.0 mi North 9.2 mph - N/A   Clear
1:52 AM 45.0 °F 40.6 °F 37.9 °F 76% 30.34 in 10.0 mi North 8.1 mph - N/A   Clear
2:52 AM 43.0 °F 38.2 °F 37.9 °F 82% 30.35 in 10.0 mi NW 8.1 mph - N/A   Clear
3:52 AM 43.0 °F 37.2 °F 37.9 °F 82% 30.37 in 10.0 mi NW 10.4 mph - N/A   Clear
4:52 AM 43.0 °F 37.2 °F 37.0 °F 80% 30.37 in 10.0 mi NNW 10.4 mph - N/A   Clear
5:52 AM 43.0 °F 36.8 °F 36.0 °F 76% 30.37 in 10.0 mi NNW 11.5 mph - N/A   Clear
6:52 AM 42.1 °F 36.1 °F 36.0 °F 79% 30.38 in 10.0 mi NNW 10.4 mph - N/A   Clear
7:52 AM 43.0 °F 38.2 °F 37.0 °F 80% 30.40 in 10.0 mi NNW 8.1 mph - N/A   Clear
8:52 AM 50.0 °F - 34.0 °F 54% 30.41 in 10.0 mi NNW 12.7 mph - N/A   Clear
9:52 AM 52.0 °F - 33.1 °F 49% 30.42 in 10.0 mi NNW 12.7 mph - N/A   Clear
10:52 AM 55.9 °F - 33.1 °F 42% 30.41 in 10.0 mi NNE 11.5 mph - N/A   Clear
11:52 AM 57.9 °F - 33.1 °F 39% 30.39 in 10.0 mi North 10.4 mph - N/A   Clear
12:52 PM 60.1 °F - 32.0 °F 35% 30.35 in 10.0 mi North 10.4 mph - N/A   Clear
1:52 PM 62.1 °F - 32.0 °F 32% 30.32 in 10.0 mi NNE 11.5 mph 16.1 mph N/A   Clear
2:52 PM 63.0 °F - 30.0 °F 29% 30.31 in 10.0 mi North 10.4 mph - N/A   Clear
3:52 PM 63.0 °F - 28.9 °F 28% 30.30 in 10.0 mi North 8.1 mph - N/A   Clear
4:52 PM 57.9 °F - 35.1 °F 42% 30.31 in 10.0 mi ENE 11.5 mph - N/A   Clear
5:52 PM 51.1 °F - 37.9 °F 61% 30.31 in 10.0 mi NE 8.1 mph - N/A   Clear
6:52 PM 48.0 °F - 37.9 °F 68% 30.32 in 10.0 mi NE 6.9 mph - N/A   Clear
7:52 PM 46.9 °F - 37.9 °F 71% 30.34 in 10.0 mi Calm Calm - N/A   Clear
8:52 PM 46.0 °F 44.8 °F 37.9 °F 73% 30.35 in 10.0 mi SE 3.5 mph - N/A   Clear
9:52 PM 44.1 °F 42.5 °F 37.0 °F 76% 30.35 in 10.0 mi SSE 3.5 mph - N/A   Clear
10:52 PM 45.0 °F 42.6 °F 37.9 °F 76% 30.35 in 10.0 mi South 4.6 mph - N/A   Clear
11:52 PM 44.1 °F 42.5 °F 37.0 °F 76% 30.34 in 10.0 mi South 3.5 mph - N/A   Clear